STARLINK-11671

Satellite information

Favourite Embed

Satellite Type and Status

PAYLOADIN ORBIT

Key statistics

Satellite STARLINK-11671 at a glance.

Uptime

186

Days in orbit

Revolutions

≈ 15.7

Per day

Orbit

LEO

Low Earth Orbit

Inclination

43.0

Latest

Satellite identification and parameters

Extended collection of information and parameters for STARLINK-11671.

Object identification

Identified? True

Debris? False

Object name: STARLINK-11671

International designator: 2025-124C

Object number (NORAD): 64319

Object ID (CCSDS): 64319

Country: UNITED STATES OF AMERICA (US)

Current information (Y/N): Y

RCS size: LARGE

Orbital parameters

Period: 91.668 minutes

Inclination: 42.9997 deg

SMA: 6734.487 km

Apoapsis: 357.855 km

Periapsis: 354.848 km

RAAN: 199.5888 deg

Eccentricy: 0.00022328

Argument of periapsis: 268.7854 deg

Mean anomaly: 91.2758 deg

Mean motion: 15.70890845 rev/day

Mean motion (dot): 0.00303308 rev/day2

B* drag term: 0.0022771555 1/REarth

Two-line elements (TLE)

Creation date: Dec. 12, 2025, 3:16 a.m.

Reference frame: TEME

Reference center: EARTH

Epoch: Dec. 11, 2025, 4:11 p.m. UTC

TLE line 0: 0 STARLINK-11671

TLE line 1: 1 64319U 25124C 25345.67490886 .00303308 00000-0 22772-2 0 9993

TLE line 2: 2 64319 42.9997 199.5888 0002233 268.7854 91.2758 15.70890845 28990

Live tracking on map

Real-time ground track for satellite STARLINK-11671.

In-orbit conjunctions

There are no conjunctions computed for STARLINK-11671, at the moment. Check back to stay up to date, as we update our databases every day.

Go to all conjunctions

Associated space launch

A batch of 23 satellites for the Starlink mega-constellation - SpaceX's project for space-based Internet communication system.

STARLINK-11671 was lifted into orbit during the mission ‘Falcon 9 Block 5 | Starlink Group 12-24’, on board a Falcon 9 space rocket.

The launch took place on June 10, 2025, 1:05 p.m. from Space Launch Complex 40.

For more information about the launch, click the button.

Launch to space Falcon 9 Block 5 | Starlink Group 12-24
Falcon 9 Block 5 | Starlink Group 12-24

Agency: SpaceX

Status: Launch Successful

Launch date: June 10, 2025, 1:05 p.m. UTC

Rocket: Falcon 9

Launch pad: Space Launch Complex 40

Location: Cape Canaveral SFS, FL, USA

...

Latest news about this satellite

News about space launch
Launch Roundup: ULA to launch Kuiper’s second batch of satellites, SpaceX to launch Axiom crew to ISS

SpaceX will launch Axiom Space’s fourth private crewed mission to the International Space Station (ISS)… The post Launch Roundup: ULA to launch Kuiper’s second batch of satellites, SpaceX to launch Axiom crew to ISS appeared first on NASASpaceFlight.com.

News about space launch
Live coverage: SpaceX to launch 23 Starlink satellites on a Falcon 9 rocket from Cape Canaveral

SpaceX will be attempting to land its 460th booster in the midst of the Starlink 12-24 mission. Teams are targeting liftoff from pad 40 at Cape Canaveral Space Force Station at 9:05 a.m. EDT (1305 UTC).


Newsletter sign-up

Weekly statistics, charts and insights to help you stay on top of the space industry.